OneWeb SL0304

operational
NORAD ID: 49092 Int'l Des: 2021-075 Owner: ONEWEBN Country: UK Constellation: oneweb
LEOCIRCULARPOLARONEWEB_TYPE

OneWeb SL0304について

説明を読み込み中...

リアルタイム位置

3D地球を読み込み中...

次回通過

高度履歴

Altitude vs Time

uPlot chart will show altitude changes over time

軌道要素

1 49092U 21075T 25258.20346889 .00000056 00000-0 11151-3 0 9994
2 49092 87.9050 60.5585 0001869 94.3747 265.7599 13.17649777197363
Epoch: Sep 15, 2025 • Age: 10 hours

現在のステータス

高度 1214.9 km
速度 7.25 km/s
衛星直下点 -51.83°S, 20.78°E
打ち上げ日 Aug 21, 2021
運用期間 4 years
タイプ internet

技術仕様

分類 Payload
質量 148.00 kg
乾燥質量 140.00 kg
総質量 148.00 kg
長さ 1.30 m
直径 1.00 m
スパン 5.00 m
形状 Trapezoid+2 pan
製造者 ONEWUS
バスタイプ ARROW
フェーズステータス In Orbit
所有者/国 ONEWEBN/UK

大規模コンステレーション

Loading constellations...